Location: Jackson
(42.2460°N, 84.4010°W)
Time: 02:30:11
(UTC-05:00)

Tiros 1 - Visible Passes

Search period start: 15 February 2026 00:00
Search period end: 25 February 2026 00:00
Orbit: 618 x 649 km, 48.4° (Epoch: 13 February)

Date Brightness Start Highest point End Pass type
(mag) Time Alt. Az. Time Alt. Az. Time Alt. Az.
19 Feb 10.1 06:54:27 10° SSE 06:56:31 13° SE 06:58:35 10° ESE visible
22 Feb 9.5 06:15:47 10° S 06:19:19 22° SE 06:22:50 10° E visible
23 Feb 8.3 06:36:18 10° SSW 06:40:41 42° SE 06:45:02 10° ENE visible
24 Feb 9.5 05:17:46 10° S 05:20:50 18° SE 05:23:55 10° E visible
